Project,Study,Ord_Occ,Event_Num,Cast_ID,Date_Time_UTC,Date_Time_PST,Lat_Dec,Lon_Dec,Sta_ID,Line,Sta,Depth,Pressure,PrQ,Temp1,Temp1Q,Temp2,Temp2Q,TempAve,Salt1,Salt1Q,Salt1_Corr,Salt2,Salt2Q,Salt2_Corr,SaltAve_Corr,Ox1,Ox1Q,Ox1_CruiseCorr,Ox1_StaCorr,Ox2,Ox2Q,Ox2_CruiseCorr,Ox2_StaCorr,OxAve_StaCorr,Ox1uM,Ox1uM_CruiseCorr,Ox1uM_StaCorr,Ox2uM,Ox2uM_CruiseCorr,Ox2uM_StaCorr,OxAveuM_StaCorr,FluorV,FluorQ,EstChl_CruiseCorr,EstChl_StaCorr,ISUSV,ISUSQ,EstNO3_CruiseCorr,EstNO3_StaCorr,SigThetaTS1,SigThetaTS1Q,SigThetaTS2,SigThetaTS2Q,BAT,XMiss,TransQ,pH,pHQ,SPAR,SPARQ,PAR,PARQ,PoT1,PoT2,DynHt,SVA,OxSat1,OxSat2,BTL_Depth,BTL_Temp,SaltB,OxB,OxBuM,Chl-a,Phaeo,NO3,NO2,NH4,PO4,SIL
CalCOFI,2101RL,022,,2101_022d,21-Jan-2021 06:39:58,20-Jan-2021 22:39:58,31.75123,-121.31726,090.0 080.0,090.0,080.0,4.000,4.028,,13.8088,,13.8094,,13.8091,33.1954,,33.2012,33.1915,,33.1935,33.1974,5.6871,,5.9520,6.1700,5.6082,,5.9545,6.1335,6.1518,247.829,259.6876,197.9494,244.393,276.0421,196.7411,197.3453,0.1219,,0.7507,0.5147, ,, , ,24.8323,,24.8292,,0.8026,81.8195,,,,2.8704E+00,,9.6775E-01,,13.8082,13.8088,0.0012,310.849,96.457,95.118,4,,33.1883,5.977,260.79,0.533,0.154,,,,,
CalCOFI,2101RL,022,,2101_022d,21-Jan-2021 06:40:04,20-Jan-2021 22:40:04,31.75123,-121.31728,090.0 080.0,090.0,080.0,5.000,5.035,,13.8097,,13.8102,,13.8100,33.1955,,33.2013,33.1915,,33.1935,33.1974,5.6866,,5.9515,6.1694,5.6307,,5.9784,6.1569,6.1632,247.810,259.6677,197.9370,245.376,276.0210,197.3885,197.6628,0.1221,,0.7523,0.5154, ,, , ,24.8322,,24.8291,,0.8035,81.8015,,,,3.0459E+00,,9.2757E-01,,13.8090,13.8095,0.0051,310.886,96.452,95.502,,,,,,,,,,,,
CalCOFI,2101RL,022,,2101_022d,21-Jan-2021 06:40:06,20-Jan-2021 22:40:06,31.75122,-121.31728,090.0 080.0,090.0,080.0,6.000,6.042,,13.8089,,13.8093,,13.8091,33.1956,,33.2014,33.1917,,33.1937,33.1976,5.6805,,5.9451,6.1632,5.6309,,5.9786,6.1571,6.1602,247.544,259.3893,197.7633,245.384,275.7252,197.3938,197.5786,0.1175,,0.7146,0.4994, ,, , ,24.8325,,24.8294,,0.8043,81.7857,,,,2.8546E+00,,9.0180E-01,,13.8081,13.8084,0.0083,310.887,96.346,95.504,,,,,,,,,,,,
CalCOFI,2101RL,022,,2101_022d,21-Jan-2021 06:40:08,20-Jan-2021 22:40:08,31.75124,-121.31728,090.0 080.0,090.0,080.0,7.000,7.049,,13.8089,,13.8094,,13.8092,33.1956,,33.2014,33.1917,,33.1937,33.1976,5.6786,,5.9431,6.1612,5.6417,,5.9900,6.1683,6.1648,247.459,259.3003,197.7078,245.852,275.6307,197.7020,197.7049,0.1203,,0.7376,0.5092, ,, , ,24.8325,,24.8294,,0.8025,81.8224,,,,3.5486E+00,,8.7772E-01,,13.8080,13.8084,0.0114,310.912,96.314,95.686,,,,,,,,,,,,
CalCOFI,2101RL,022,,2101_022d,21-Jan-2021 06:40:10,20-Jan-2021 22:40:10,31.75124,-121.31729,090.0 080.0,090.0,080.0,8.000,8.056,,13.8088,,13.8092,,13.8090,33.1957,,33.2015,33.1918,,33.1938,33.1977,5.6916,,5.9567,6.1746,5.6421,,5.9905,6.1687,6.1717,248.028,259.8959,198.0794,245.872,276.2634,197.7151,197.8973,0.1188,,0.7253,0.5040, ,, , ,24.8327,,24.8295,,0.8025,81.8216,,,,2.8552E+00,,8.6380E-01,,13.8076,13.8081,0.0145,310.928,96.535,95.694,,,,,,,,,,,,
CalCOFI,2101RL,022,,2101_022d,21-Jan-2021 06:40:12,20-Jan-2021 22:40:12,31.75124,-121.31730,090.0 080.0,090.0,080.0,9.000,9.063,,13.8090,,13.8094,,13.8092,33.1957,,33.2015,33.1918,,33.1938,33.1977,5.6843,,5.9491,6.1671,5.6378,,5.9859,6.1642,6.1657,247.711,259.5641,197.8724,245.685,275.9109,197.5920,197.7322,0.1220,,0.7515,0.5150, ,, , ,24.8327,,24.8295,,0.8019,81.8352,,,,3.6181E+00,,8.5139E-01,,13.8077,13.8082,0.0176,310.955,96.412,95.622,,,,,,,,,,,,
CalCOFI,2101RL,022,,2101_022d,21-Jan-2021 06:40:14,20-Jan-2021 22:40:14,31.75124,-121.31730,090.0 080.0,090.0,080.0,10.000,10.070,,13.8086,,13.8093,,13.8090,33.1957,,33.2015,33.1918,,33.1938,33.1977,5.6919,,5.9570,6.1749,5.6456,,5.9942,6.1723,6.1736,248.040,259.9085,198.0872,246.024,276.2768,197.8152,197.9512,0.1298,,0.8154,0.5399, ,, , ,24.8328,,24.8296,,0.8023,81.8267,,,,2.9437E+00,,8.3885E-01,,13.8072,13.8079,0.0208,310.971,96.539,95.753,10,,33.1867,5.956,259.90,0.492,0.179,,,,,
CalCOFI,2101RL,022,,2101_022d,21-Jan-2021 06:40:17,20-Jan-2021 22:40:17,31.75125,-121.31731,090.0 080.0,090.0,080.0,11.000,11.077,,13.8078,,13.8085,,13.8082,33.1958,,33.2016,33.1919,,33.1939,33.1978,5.6835,,5.9483,6.1663,5.6383,,5.9864,6.1647,6.1655,247.673,259.5243,197.8476,245.707,275.8687,197.6065,197.7271,0.1185,,0.7228,0.5029, ,, , ,24.8330,,24.8299,,0.8014,81.8447,,,,2.8994E+00,,8.1652E-01,,13.8063,13.8070,0.0239,310.977,96.395,95.628,,,,,,,,,,,,
CalCOFI,2101RL,022,,2101_022d,21-Jan-2021 06:40:19,20-Jan-2021 22:40:19,31.75126,-121.31732,090.0 080.0,090.0,080.0,12.000,12.084,,13.8094,,13.8097,,13.8096,33.1956,,33.2014,33.1917,,33.1937,33.1976,5.6870,,5.9519,6.1698,5.6348,,5.9827,6.1611,6.1655,247.827,259.6855,197.9482,245.551,276.0399,197.5037,197.7260,0.1099,,0.6523,0.4708, ,, , ,24.8326,,24.8295,,0.8024,81.8251,,,,3.2931E+00,,7.9793E-01,,13.8077,13.8080,0.0270,311.047,96.458,95.570,,,,,,,,,,,,
CalCOFI,2101RL,022,,2101_022d,21-Jan-2021 06:40:21,20-Jan-2021 22:40:21,31.75126,-121.31731,090.0 080.0,090.0,080.0,13.000,13.091,,13.8116,,13.8114,,13.8115,33.1956,,33.2014,33.1918,,33.1938,33.1976,5.6898,,5.9548,6.1727,5.6484,,5.9972,6.1752,6.1740,247.949,259.8132,198.0278,246.145,276.1756,197.8949,197.9614,0.1131,,0.6786,0.4831, ,, , ,24.8322,,24.8292,,0.8023,81.8263,,,,3.6353E+00,,7.8831E-01,,13.8098,13.8096,0.0302,311.115,96.510,95.805,,,,,,,,,,,,
CalCOFI,2101RL,022,,2101_022d,21-Jan-2021 06:40:23,20-Jan-2021 22:40:23,31.75126,-121.31731,090.0 080.0,090.0,080.0,14.000,14.098,,13.8127,,13.8118,,13.8123,33.1956,,33.2014,33.1917,,33.1937,33.1976,5.6690,,5.9331,6.1514,5.6463,,5.9949,6.1730,6.1622,247.044,258.8659,197.4368,246.056,275.1692,197.8363,197.6366,0.1161,,0.7031,0.4943, ,, , ,24.8319,,24.8291,,0.8019,81.8339,,,,3.0223E+00,,7.7070E-01,,13.8107,13.8099,0.0333,311.165,96.159,95.770,,,,,,,,,,,,
CalCOFI,2101RL,022,,2101_022d,21-Jan-2021 06:40:25,20-Jan-2021 22:40:25,31.75126,-121.31732,090.0 080.0,090.0,080.0,15.000,15.105,,13.8146,,13.8151,,13.8149,33.1956,,33.2014,33.1916,,33.1936,33.1975,5.6589,,5.9225,6.1410,5.6382,,5.9863,6.1646,6.1528,246.604,258.4053,197.1495,245.703,274.6799,197.6038,197.3767,0.1227,,0.7572,0.5174, ,, , ,24.8316,,24.8284,,0.8035,81.8024,,,,3.0953E+00,,7.6352E-01,,13.8125,13.8130,0.0364,311.228,95.991,95.639,,,,,,,,,,,,
CalCOFI,2101RL,022,,2101_022d,21-Jan-2021 06:40:27,20-Jan-2021 22:40:27,31.75127,-121.31735,090.0 080.0,090.0,080.0,16.000,16.113,,13.8148,,13.8154,,13.8151,33.1954,,33.2012,33.1916,,33.1936,33.1974,5.6650,,5.9289,6.1473,5.6560,,6.0052,6.1831,6.1652,246.870,258.6837,197.3232,246.476,274.9757,198.1129,197.7181,0.1196,,0.7318,0.5068, ,, , ,24.8314,,24.8284,,0.8032,81.8073,,,,3.0005E+00,,7.4289E-01,,13.8125,13.8132,0.0396,311.272,96.095,95.941,16,,33.1889,, ,,,,,,,
CalCOFI,2101RL,022,,2101_022d,21-Jan-2021 06:40:30,20-Jan-2021 22:40:30,31.75129,-121.31738,090.0 080.0,090.0,080.0,17.000,17.120,,13.8155,,13.8159,,13.8157,33.1956,,33.2014,33.1918,,33.1938,33.1976,5.6786,,5.9431,6.1612,5.6413,,5.9896,6.1679,6.1646,247.461,259.3024,197.7091,245.837,275.6329,197.6921,197.7006,0.1236,,0.7646,0.5204, ,, , ,24.8315,,24.8285,,0.8017,81.8386,,,,3.5887E+00,,7.2783E-01,,13.8132,13.8135,0.0427,311.293,96.327,95.693,,,,,,,,,,,,
CalCOFI,2101RL,022,,2101_022d,21-Jan-2021 06:40:34,20-Jan-2021 22:40:34,31.75129,-121.31739,090.0 080.0,090.0,080.0,18.000,18.127,,13.8156,,13.8160,,13.8158,33.1956,,33.2014,33.1919,,33.1939,33.1977,5.6738,,5.9381,6.1563,5.6479,,5.9966,6.1747,6.1655,247.253,259.0846,197.5733,246.125,275.4016,197.8818,197.7276,0.1162,,0.7040,0.4947, ,, , ,24.8315,,24.8285,,0.8036,81.8005,,,,2.9970E+00,,7.0689E-01,,13.8131,13.8135,0.0458,311.322,96.246,95.805,,,,,,,,,,,,
CalCOFI,2101RL,022,,2101_022d,21-Jan-2021 06:40:44,20-Jan-2021 22:40:44,31.75131,-121.31744,090.0 080.0,090.0,080.0,19.000,19.134,,13.8152,,13.8156,,13.8154,33.1955,,33.2013,33.1917,,33.1937,33.1975,5.6728,,5.9371,6.1553,5.6410,,5.9893,6.1675,6.1614,247.208,259.0375,197.5439,245.822,275.3516,197.6822,197.6131,0.1211,,0.7441,0.5120, ,, , ,24.8315,,24.8285,,0.8023,81.8263,,,,3.0239E+00,,6.4053E-01,,13.8126,13.8130,0.0524,311.344,96.228,95.687,,,,,,,,,,,,
CalCOFI,2101RL,022,,2101_022d,21-Jan-2021 06:40:51,20-Jan-2021 22:40:51,31.75132,-121.31745,090.0 080.0,090.0,080.0,20.000,20.141,,13.8158,,13.8162,,13.8160,33.1956,,33.2014,33.1918,,33.1938,33.1976,5.6775,,5.9420,6.1601,5.6494,,5.9982,6.1763,6.1682,247.413,259.2521,197.6778,246.191,275.5795,197.9252,197.8015,0.1199,,0.7343,0.5079, ,, , ,24.8315,,24.8285,,0.8020,81.8330,,,,2.8831E+00,,6.0143E-01,,13.8130,13.8134,0.0569,311.375,96.309,95.832,,,,,,,,,,,,
CalCOFI,2101RL,022,,2101_022d,21-Jan-2021 06:40:58,20-Jan-2021 22:40:58,31.75132,-121.31748,090.0 080.0,090.0,080.0,21.000,21.148,,13.8160,,13.8162,,13.8161,33.1957,,33.2015,33.1920,,33.1940,33.1978,5.6683,,5.9323,6.1507,5.6420,,5.9904,6.1686,6.1597,247.014,258.8345,197.4172,245.869,275.1358,197.7132,197.5652,0.1223,,0.7539,0.5161, ,, , ,24.8316,,24.8286,,0.8011,81.8505,,,,3.2332E+00,,5.5989E-01,,13.8131,13.8132,0.0608,311.397,96.154,95.706,21,,33.2167,5.951,259.68,0.565,0.212,,,,,
CalCOFI,2101RL,022,,2101_022d,21-Jan-2021 06:41:02,20-Jan-2021 22:41:02,31.75134,-121.31750,090.0 080.0,090.0,080.0,22.000,22.155,,13.8143,,13.8150,,13.8147,33.1958,,33.2016,33.1921,,33.1941,33.1979,5.6668,,5.9308,6.1491,5.6479,,5.9966,6.1747,6.1619,246.949,258.7664,197.3748,246.124,275.0636,197.8811,197.6280,0.1267,,0.7900,0.5304, ,, , ,24.8320,,24.8290,,0.8026,81.8204,,,,3.1977E+00,,5.3663E-01,,13.8112,13.8118,0.0640,311.383,96.126,95.803,,,,,,,,,,,,
CalCOFI,2101RL,022,,2101_022d,21-Jan-2021 06:41:06,20-Jan-2021 22:41:06,31.75135,-121.31754,090.0 080.0,090.0,080.0,23.000,23.162,,13.8096,,13.8101,,13.8099,33.1958,,33.2016,33.1921,,33.1941,33.1979,5.6713,,5.9355,6.1537,5.6423,,5.9907,6.1689,6.1613,247.141,258.9674,197.5002,245.881,275.2771,197.7211,197.6107,0.1220,,0.7515,0.5150, ,, , ,24.8330,,24.8301,,0.8031,81.8109,,,,2.7915E+00,,5.1542E-01,,13.8063,13.8068,0.0671,311.312,96.191,95.699,,,,,,,,,,,,
CalCOFI,2101RL,022,,2101_022d,21-Jan-2021 06:41:11,20-Jan-2021 22:41:11,31.75134,-121.31752,090.0 080.0,090.0,080.0,24.000,24.169,,13.8063,,13.8061,,13.8062,33.1960,,33.2018,33.1922,,33.1942,33.1980,5.6667,,5.9307,6.1490,5.6430,,5.9914,6.1696,6.1593,246.943,258.7601,197.3709,245.912,275.0569,197.7415,197.5562,0.1241,,0.7687,0.5220, ,, , ,24.8338,,24.8309,,0.8054,81.7623,,,,2.9203E+00,,4.9121E-01,,13.8029,13.8027,0.0703,311.264,96.108,95.704,,,,,,,,,,,,
CalCOFI,2101RL,022,,2101_022d,21-Jan-2021 06:41:13,20-Jan-2021 22:41:13,31.75134,-121.31754,090.0 080.0,090.0,080.0,25.000,25.176,,13.8051,,13.8052,,13.8052,33.1962,,33.2020,33.1923,,33.1943,33.1982,5.6775,,5.9420,6.1601,5.6429,,5.9913,6.1695,6.1648,247.415,259.2542,197.6791,245.905,275.5818,197.7369,197.7080,0.1260,,0.7843,0.5282, ,, , ,24.8343,,24.8313,,0.8070,81.7291,,,,2.4718E+00,,4.8153E-01,,13.8016,13.8017,0.0734,311.252,96.289,95.699,,,,,,,,,,,,
CalCOFI,2101RL,022,,2101_022d,21-Jan-2021 06:41:18,20-Jan-2021 22:41:18,31.75134,-121.31757,090.0 080.0,090.0,080.0,26.000,26.183,,13.8042,,13.8041,,13.8042,33.1963,,33.2021,33.1925,,33.1945,33.1983,5.6657,,5.9296,6.1480,5.6360,,5.9840,6.1624,6.1552,246.899,258.7141,197.3421,245.603,275.0080,197.5380,197.4401,0.1299,,0.8162,0.5402, ,, , ,24.8346,,24.8317,,0.8061,81.7476,,,,3.1452E+00,,4.6053E-01,,13.8006,13.8005,0.0765,311.252,96.087,95.580,,,,,,,,,,,,
CalCOFI,2101RL,022,,2101_022d,21-Jan-2021 06:41:20,20-Jan-2021 22:41:20,31.75133,-121.31756,090.0 080.0,090.0,080.0,27.000,27.191,,13.7979,,13.7994,,13.7987,33.1967,,33.2025,33.1927,,33.1947,33.1986,5.6743,,5.9386,6.1568,5.6292,,5.9768,6.1553,6.1561,247.273,259.1056,197.5864,245.308,275.4239,197.3437,197.4651,0.1241,,0.7687,0.5220, ,, , ,24.8362,,24.8328,,0.8080,81.7102,,,,3.1539E+00,,4.4502E-01,,13.7941,13.7956,0.0797,311.122,96.220,95.456,,,,,,,,,,,,
CalCOFI,2101RL,022,,2101_022d,21-Jan-2021 06:41:23,20-Jan-2021 22:41:23,31.75133,-121.31757,090.0 080.0,090.0,080.0,28.000,28.198,,13.7895,,13.7896,,13.7896,33.1974,,33.2032,33.1936,,33.1956,33.1994,5.6578,,5.9214,6.1399,5.6384,,5.9865,6.1648,6.1524,246.552,258.3508,197.1155,245.707,274.6221,197.6065,197.3610,0.1282,,0.8023,0.5351, ,, , ,24.8385,,24.8355,,0.8083,81.7034,,,,2.9721E+00,,4.3414E-01,,13.7856,13.7856,0.0828,310.932,95.924,95.593,,,,,,,,,,,,
CalCOFI,2101RL,022,,2101_022d,21-Jan-2021 06:41:27,20-Jan-2021 22:41:27,31.75134,-121.31760,090.0 080.0,090.0,080.0,29.000,29.205,,13.7786,,13.7781,,13.7784,33.1984,,33.2042,33.1948,,33.1968,33.2005,5.6726,,5.9368,6.1551,5.6395,,5.9877,6.1660,6.1606,247.197,259.0260,197.5367,245.756,275.3393,197.6387,197.5877,0.1292,,0.8105,0.5381, ,, , ,24.8416,,24.8389,,0.8093,81.6840,,,,2.5074E+00,,4.1000E-01,,13.7745,13.7740,0.0859,310.667,96.155,95.591,,,,,,,,,,,,
CalCOFI,2101RL,022,,2101_022d,21-Jan-2021 06:41:28,20-Jan-2021 22:41:28,31.75134,-121.31760,090.0 080.0,090.0,080.0,30.000,30.212,,13.7724,,13.7746,,13.7735,33.1992,,33.2050,33.1952,,33.1972,33.2011,5.6926,,5.9578,6.1756,5.6424,,5.9908,6.1690,6.1723,248.067,259.9367,198.1049,245.881,276.3068,197.7211,197.9130,0.1292,,0.8105,0.5381, ,, , ,24.8435,,24.8399,,0.8086,81.6975,,,,2.2708E+00,,4.1036E-01,,13.7682,13.7704,0.0891,310.515,96.482,95.633,,,,,,,,,,,,
CalCOFI,2101RL,022,,2101_022d,21-Jan-2021 06:41:31,20-Jan-2021 22:41:31,31.75136,-121.31762,090.0 080.0,090.0,080.0,31.000,31.219,,13.7734,,13.7791,,13.7763,33.1993,,33.2051,33.1950,,33.1970,33.2011,5.6687,,5.9328,6.1511,5.6413,,5.9896,6.1679,6.1595,247.028,258.8491,197.4264,245.834,275.1514,197.6901,197.5583,0.1331,,0.8424,0.5496, ,, , ,24.8433,,24.8389,,0.8082,81.7060,,,,2.8960E+00,,3.9397E-01,,13.7690,13.7747,0.0922,310.554,96.079,95.623,,,,,,,,,,,,
CalCOFI,2101RL,022,,2101_022d,21-Jan-2021 06:41:34,20-Jan-2021 22:41:34,31.75136,-121.31764,090.0 080.0,090.0,080.0,32.000,32.226,,13.7737,,13.7814,,13.7776,33.1991,,33.2049,33.1948,,33.1968,33.2009,5.6664,,5.9304,6.1487,5.6108,,5.9572,6.1362,6.1425,246.928,258.7444,197.3611,244.504,275.0402,196.8142,197.0877,0.1305,,0.8211,0.5420, ,, , ,24.8432,,24.8383,,0.8106,81.6568,,,,3.2021E+00,,3.8066E-01,,13.7692,13.7769,0.0953,310.595,96.041,95.110,,,,,,,,,,,,
CalCOFI,2101RL,022,,2101_022d,21-Jan-2021 06:41:36,20-Jan-2021 22:41:36,31.75136,-121.31764,090.0 080.0,090.0,080.0,33.000,33.234,,13.7829,,13.7859,,13.7844,33.1985,,33.2043,33.1945,,33.1965,33.2004,5.6735,,5.9378,6.1560,5.6270,,5.9744,6.1530,6.1545,247.238,259.0689,197.5635,245.213,275.3849,197.2811,197.4223,0.1271,,0.7933,0.5316, ,, , ,24.8409,,24.8371,,0.8108,81.6515,,,,3.0644E+00,,3.7362E-01,,13.7782,13.7813,0.0984,310.847,96.179,95.394,,,,,,,,,,,,
CalCOFI,2101RL,022,,2101_022d,21-Jan-2021 06:41:39,20-Jan-2021 22:41:39,31.75137,-121.31765,090.0 080.0,090.0,080.0,34.000,34.241,,13.7866,,13.7848,,13.7857,33.1984,,33.2042,33.1949,,33.1969,33.2006,5.6389,,5.9016,6.1205,5.6317,,5.9794,6.1579,6.1392,245.731,257.4914,196.5794,245.415,273.7091,197.4142,196.9968,0.1237,,0.7654,0.5207, ,, , ,24.8401,,24.8377,,0.8064,81.7425,,,,3.0540E+00,,3.5643E-01,,13.7818,13.7800,0.1016,310.952,95.600,95.471,,,,,,,,,,,,
CalCOFI,2101RL,022,,2101_022d,21-Jan-2021 06:41:41,20-Jan-2021 22:41:41,31.75138,-121.31766,090.0 080.0,090.0,080.0,35.000,35.248,,13.8069,,13.8043,,13.8056,33.1966,,33.2024,33.1930,,33.1950,33.1987,5.6473,,5.9104,6.1291,5.6193,,5.9663,6.1450,6.1371,246.095,257.8724,196.8171,244.877,274.1139,197.0598,196.9385,0.1256,,0.7810,0.5269, ,, , ,24.8346,,24.8323,,0.8064,81.7416,,,,3.4742E+00,,3.4313E-01,,13.8019,13.7993,0.1047,311.506,95.779,95.298,,,,,,,,,,,,
CalCOFI,2101RL,022,,2101_022d,21-Jan-2021 06:41:43,20-Jan-2021 22:41:43,31.75138,-121.31767,090.0 080.0,090.0,080.0,36.000,36.255,,13.7771,,13.7745,,13.7758,33.1992,,33.2050,33.1960,,33.1980,33.2015,5.6534,,5.9167,6.1354,5.6315,,5.9792,6.1577,6.1466,246.360,258.1498,196.9901,245.409,274.4086,197.4102,197.2002,0.1301,,0.8179,0.5408, ,, , ,24.8427,,24.8407,,0.8092,81.6861,,,,3.0686E+00,,3.4295E-01,,13.7720,13.7694,0.1078,310.755,95.827,95.449,,,,,,,,,,,,
CalCOFI,2101RL,022,,2101_022d,21-Jan-2021 06:41:45,20-Jan-2021 22:41:45,31.75138,-121.31768,090.0 080.0,090.0,080.0,37.000,37.262,,13.7608,,13.7607,,13.7608,33.2008,,33.2066,33.1970,,33.1990,33.2028,5.6625,,5.9263,6.1447,5.6252,,5.9725,6.1512,6.1480,246.755,258.5633,197.2481,245.130,274.8478,197.2265,197.2373,0.1300,,0.8170,0.5405, ,, , ,24.8473,,24.8444,,0.8086,81.6976,,,,2.7323E+00,,3.2888E-01,,13.7556,13.7555,0.1110,310.349,95.950,95.315,,,,,,,,,,,,
CalCOFI,2101RL,022,,2101_022d,21-Jan-2021 06:41:47,20-Jan-2021 22:41:47,31.75138,-121.31770,090.0 080.0,090.0,080.0,38.000,38.269,,13.7565,,13.7561,,13.7563,33.2017,,33.2075,33.1981,,33.2001,33.2038,5.6671,,5.9311,6.1494,5.6245,,5.9718,6.1504,6.1499,246.955,258.7727,197.3787,245.099,275.0702,197.2061,197.2924,0.1299,,0.8162,0.5402, ,, , ,24.8489,,24.8462,,0.8109,81.6499,,,,3.3255E+00,,3.1860E-01,,13.7511,13.7507,0.1141,310.222,96.020,95.295,,,,,,,,,,,,
CalCOFI,2101RL,022,,2101_022d,21-Jan-2021 06:41:49,20-Jan-2021 22:41:49,31.75139,-121.31771,090.0 080.0,090.0,080.0,39.000,39.277,,13.7506,,13.7514,,13.7510,33.2033,,33.2091,33.1995,,33.2015,33.2053,5.6541,,5.9175,6.1361,5.6153,,5.9620,6.1409,6.1385,246.387,258.1781,197.0078,244.698,274.4386,196.9420,196.9749,0.1272,,0.7941,0.5320, ,, , ,24.8514,,24.8483,,0.8065,81.7408,,,,2.6842E+00,,3.0965E-01,,13.7451,13.7459,0.1172,310.013,95.789,95.131,,,,,,,,,,,,
CalCOFI,2101RL,022,,2101_022d,21-Jan-2021 06:41:52,20-Jan-2021 22:41:52,31.75140,-121.31772,090.0 080.0,090.0,080.0,40.000,40.284,,13.7487,,13.7490,,13.7489,33.2032,,33.2090,33.1997,,33.2017,33.2054,5.6476,,5.9107,6.1294,5.6073,,5.9535,6.1326,6.1310,246.105,257.8829,196.8236,244.351,274.1250,196.7134,196.7685,0.1239,,0.7670,0.5214, ,, , ,24.8517,,24.8490,,0.8041,81.7895,,,,2.8720E+00,,2.9839E-01,,13.7431,13.7434,0.1203,310.009,95.675,94.992,,,,,,,,,,,,
CalCOFI,2101RL,022,,2101_022d,21-Jan-2021 06:41:53,20-Jan-2021 22:41:53,31.75142,-121.31774,090.0 080.0,090.0,080.0,41.000,41.291,,13.7389,,13.7394,,13.7392,33.2036,,33.2094,33.1998,,33.2018,33.2056,5.6490,,5.9121,6.1309,5.6085,,5.9548,6.1338,6.1324,246.166,257.9468,196.8634,244.401,274.1929,196.7464,196.8049,0.1235,,0.7638,0.5201, ,, , ,24.8540,,24.8510,,0.8015,81.8435,,,,3.6050E+00,,2.8966E-01,,13.7331,13.7337,0.1235,309.814,95.681,94.993,,,,,,,,,,,,
CalCOFI,2101RL,022,,2101_022d,21-Jan-2021 06:41:55,20-Jan-2021 22:41:55,31.75142,-121.31775,090.0 080.0,090.0,080.0,42.000,42.298,,13.7359,,13.7351,,13.7355,33.2038,,33.2096,33.2001,,33.2021,33.2059,5.6392,,5.9019,6.1208,5.6004,,5.9462,6.1254,6.1231,245.738,257.4987,196.5840,244.048,273.7169,196.5139,196.5490,0.1233,,0.7621,0.5194, ,, , ,24.8549,,24.8521,,0.7995,81.8836,,,,3.0234E+00,,2.8378E-01,,13.7300,13.7292,0.1266,309.762,95.508,94.848,,,,,,,,,,,,
CalCOFI,2101RL,022,,2101_022d,21-Jan-2021 06:41:57,20-Jan-2021 22:41:57,31.75142,-121.31778,090.0 080.0,090.0,080.0,43.000,43.305,,13.7250,,13.7254,,13.7252,33.2043,,33.2101,33.2006,,33.2026,33.2064,5.6300,,5.8923,6.1114,5.5899,,5.9350,6.1146,6.1130,245.339,257.0811,196.3234,243.589,273.2732,196.2116,196.2675,0.1169,,0.7097,0.4972, ,, , ,24.8575,,24.8545,,0.7943,81.9915,,,,3.1654E+00,,2.7821E-01,,13.7190,13.7194,0.1297,309.544,95.332,94.651,,,,,,,,,,,,
CalCOFI,2101RL,022,,2101_022d,21-Jan-2021 06:41:59,20-Jan-2021 22:41:59,31.75142,-121.31778,090.0 080.0,090.0,080.0,44.000,44.313,,13.7169,,13.7169,,13.7169,33.2049,,33.2107,33.2013,,33.2033,33.2070,5.6365,,5.8991,6.1181,5.5821,,5.9267,6.1065,6.1123,245.619,257.3742,196.5062,243.252,273.5846,195.9896,196.2479,0.1132,,0.6794,0.4835, ,, , ,24.8596,,24.8568,,0.7917,82.0426,,,,3.4884E+00,,2.7265E-01,,13.7108,13.7107,0.1328,309.368,95.426,94.504,,,,,,,,,,,,
CalCOFI,2101RL,022,,2101_022d,21-Jan-2021 06:42:00,20-Jan-2021 22:42:00,31.75142,-121.31780,090.0 080.0,090.0,080.0,45.000,45.320,,13.7073,,13.7057,,13.7065,33.2066,,33.2124,33.2031,,33.2051,33.2088,5.6317,,5.8940,6.1131,5.5879,,5.9329,6.1125,6.1128,245.409,257.1543,196.3691,243.501,273.3511,196.1536,196.2614,0.1125,,0.6736,0.4809, ,, , ,24.8629,,24.8606,,0.7893,82.0922,,,,3.3684E+00,,2.5953E-01,,13.7010,13.6994,0.1359,309.082,95.328,94.581,,,,,,,,,,,,
CalCOFI,2101RL,022,,2101_022d,21-Jan-2021 06:42:03,20-Jan-2021 22:42:03,31.75142,-121.31780,090.0 080.0,090.0,080.0,46.000,46.327,,13.6964,,13.6967,,13.6966,33.2087,,33.2145,33.2049,,33.2069,33.2107,5.6242,,5.8862,6.1055,5.5705,,5.9144,6.0944,6.1000,245.080,256.8099,196.1543,242.744,272.9852,195.6551,195.9047,0.1108,,0.6597,0.4743, ,, , ,24.8669,,24.8638,,0.7872,82.1353,,,,2.2104E+00,,2.5282E-01,,13.6899,13.6902,0.1390,308.731,95.180,94.271,,,,,,,,,,,,
CalCOFI,2101RL,022,,2101_022d,21-Jan-2021 06:42:05,20-Jan-2021 22:42:05,31.75142,-121.31780,090.0 080.0,090.0,080.0,47.000,47.334,,13.6792,,13.6785,,13.6789,33.2103,,33.2161,33.2071,,33.2091,33.2126,5.5964,,5.8571,6.0769,5.5388,,5.8808,6.0616,6.0693,243.868,255.5412,195.3628,241.360,271.6374,194.7436,195.0532,0.1049,,0.6114,0.4505, ,, , ,24.8716,,24.8693,,0.7822,82.2381,,,,3.1233E+00,,2.4437E-01,,13.6726,13.6719,0.1422,308.305,94.678,93.700,,,,,,,,,,,,
CalCOFI,2101RL,022,,2101_022d,21-Jan-2021 06:42:07,20-Jan-2021 22:42:07,31.75142,-121.31782,090.0 080.0,090.0,080.0,48.000,48.341,,13.6297,,13.6267,,13.6282,33.2155,,33.2213,33.2125,,33.2145,33.2179,5.5668,,5.8261,6.0466,5.5261,,5.8673,6.0484,6.0475,242.577,254.1898,194.5197,240.803,270.2018,194.3768,194.4483,0.0965,,0.5425,0.4137, ,, , ,24.8857,,24.8840,,0.7763,82.3585,,,,3.3867E+00,,2.4061E-01,,13.6230,13.6200,0.1453,306.986,94.086,93.390,,,,,,,,,,,,
CalCOFI,2101RL,022,,2101_022d,21-Jan-2021 06:42:09,20-Jan-2021 22:42:09,31.75142,-121.31783,090.0 080.0,090.0,080.0,49.000,49.349,,13.5643,,13.5599,,13.5621,33.2185,,33.2243,33.2160,,33.2180,33.2212,5.5497,,5.8082,6.0291,5.5060,,5.8459,6.0275,6.0283,241.830,253.4078,194.0319,239.925,269.3712,193.7985,193.9152,0.0898,,0.4876,0.3820, ,, , ,24.9014,,24.9003,,0.7659,82.5729,,,,3.3167E+00,,2.3420E-01,,13.5574,13.5531,0.1483,305.520,93.673,92.926,,,,,,,,,,,,
CalCOFI,2101RL,022,,2101_022d,21-Jan-2021 06:42:10,20-Jan-2021 22:42:10,31.75142,-121.31784,090.0 080.0,090.0,080.0,50.000,50.356,,13.5167,,13.5180,,13.5174,33.2200,,33.2258,33.2164,,33.2184,33.2221,5.5218,,5.7790,6.0005,5.4829,,5.8214,6.0036,6.0021,240.610,252.1307,193.2352,238.915,268.0145,193.1334,193.1843,0.0855,,0.4524,0.3606, ,, , ,24.9122,,24.9092,,0.7604,82.6878,,,,3.1236E+00,,2.2445E-01,,13.5097,13.5110,0.1514,304.516,93.112,92.456,,,,,,,,,,,,
CalCOFI,2101RL,022,,2101_022d,21-Jan-2021 06:42:12,20-Jan-2021 22:42:12,31.75142,-121.31784,090.0 080.0,090.0,080.0,51.000,51.363,,13.4773,,13.4715,,13.4744,33.2228,,33.2286,33.2207,,33.2227,33.2257,5.5120,,5.7688,5.9904,5.4842,,5.8228,6.0049,5.9977,240.181,251.6817,192.9550,238.969,267.5374,193.1689,193.0620,0.0822,,0.4254,0.3435, ,, , ,24.9223,,24.9219,,0.7556,82.7867,,,,3.2405E+00,,2.1797E-01,,13.4703,13.4644,0.1545,303.571,92.874,92.393,51,,33.2232,5.733,250.16,0.307,0.187,,,,,
CalCOFI,2101RL,022,,2101_022d,21-Jan-2021 06:42:14,20-Jan-2021 22:42:14,31.75142,-121.31784,090.0 080.0,090.0,080.0,52.000,52.370,,13.4363,,13.4363,,13.4363,33.2234,,33.2292,33.2200,,33.2220,33.2256,5.5063,,5.7628,5.9846,5.4736,,5.8115,5.9939,5.9893,239.930,251.4189,192.7911,238.506,267.2583,192.8640,192.8276,0.0760,,0.3746,0.3101, ,, , ,24.9311,,24.9285,,0.7510,82.8815,,,,3.4158E+00,,2.0545E-01,,13.4291,13.4291,0.1575,302.757,92.700,92.147,,,,,,,,,,,,
CalCOFI,2101RL,022,,2101_022d,21-Jan-2021 06:42:16,20-Jan-2021 22:42:16,31.75141,-121.31785,090.0 080.0,090.0,080.0,53.000,53.378,,13.4284,,13.4296,,13.4290,33.2230,,33.2288,33.2191,,33.2211,33.2250,5.5191,,5.7762,5.9977,5.4641,,5.8014,5.9841,5.9909,240.489,252.0041,193.1562,238.091,267.8799,192.5907,192.8735,0.0758,,0.3729,0.3090, ,, , ,24.9324,,24.9292,,0.7498,82.9063,,,,3.0749E+00,,2.0519E-01,,13.4211,13.4223,0.1606,302.663,92.901,91.974,,,,,,,,,,,,